Theta_e
319 318 316 317 318 316 314 317 319 320 321 321 321 320 317 317 316 316 315 315 315 314 314 313 311 310 309 309 308 309 309 309 308 307 306 305 305 305 304 303 303 303 302 302
318 317 316 316 317 317 317 316 316 317 319 319 318 318 318 317 316 316 316 315 315 314 313 312 311 311 309 309 309 308 308 309 308 308 307 306 305 304 304 303 303 302 302 302
321 316 316 318 319 319 317 318 318 318 320 320 319 318 317 316 315 315 315 315 314 313 312 311 311 310 311 311 312 312 310 309 308 307 307 306 306 305 305 304 303 303 302 302
321 317 321 323 317 316 318 318 318 317 318 317 317 317 316 315 315 315 314 313 313 312 312 311 310 311 313 313 313 313 312 312 310 308 307 306 305 305 305 304 304 303 302 302
323 321 322 321 321 316 316 321 320 318 319 319 318 314 317 316 314 314 314 314 313 312 311 311 311 313 313 313 313 313 312 312 312 312 311 311 310 309 307 305 304 304 304 303
321 323 325 324 316 315 316 320 321 320 319 318 316 318 320 317 315 314 314 314 313 312 312 311 312 313 313 313 313 312 312 312 312 311 311 311 311 311 310 309 307 303 303 303
322 325 323 322 315 314 321 325 320 318 318 317 317 317 317 316 315 314 314 314 313 313 312 312 313 313 313 312 312 312 312 312 311 311 311 311 311 310 309 309 308 306 304 302
321 324 324 320 314 318 322 321 319 317 317 317 316 316 315 315 314 314 314 313 313 313 312 312 312 312 312 312 312 312 311 311 311 311 311 311 311 310 307 305 306 307 306 304
323 323 320 315 319 316 318 320 319 317 316 315 315 315 314 314 314 314 313 313 313 312 313 312 311 312 312 312 312 311 311 310 311 311 311 310 309 307 305 305 304 304 305 305
323 322 320 316 316 317 317 316 317 316 315 315 315 315 314 314 314 314 313 313 313 312 313 313 313 311 311 311 311 311 310 309 311 311 311 310 308 307 306 306 304 303 303 303
319 320 319 318 316 316 316 316 315 315 315 315 314 315 315 314 314 313 313 313 313 312 312 312 313 312 311 310 310 310 309 309 310 310 310 309 307 306 305 305 305 304 303 302
322 321 321 321 321 319 317 316 316 315 316 317 317 316 315 314 314 313 313 313 313 313 313 313 313 312 312 311 309 309 308 309 310 309 309 307 306 306 306 305 305 303 303 302
319 319 318 318 317 317 317 317 317 317 317 317 317 316 315 314 314 314 313 312 312 312 313 312 313 313 311 309 308 308 308 309 308 309 307 305 305 305 304 306 305 305 303 303
318 317 317 317 316 317 318 318 318 318 317 315 314 313 313 314 313 312 311 311 312 311 311 311 311 311 309 307 307 307 308 308 308 307 306 305 305 305 303 303 304 305 304 302
316 317 317 317 317 317 317 317 317 316 315 315 315 315 314 313 313 313 312 311 310 310 311 311 310 309 308 307 307 307 308 308 306 305 305 305 304 304 302 301 301 302 302 302
316 316 316 316 316 315 315 315 315 315 315 314 314 313 313 313 312 312 311 310 310 310 310 309 308 308 307 307 306 306 307 306 305 305 304 304 303 302 301 301 300 300 300 300
315 315 315 315 315 314 314 314 313 313 313 313 312 312 311 311 311 310 310 310 310 309 309 308 307 306 306 305 306 307 306 305 305 303 302 301 300 299 299 299 298 299 298 298
314 314 314 314 313 313 312 312 312 311 311 311 310 310 310 310 309 309 308 308 308 308 308 308 306 305 305 306 306 306 305 303 301 299 298 298 299 300 299 298 297 297 297 296
312 312 312 312 311 311 311 310 309 309 309 309 309 309 309 309 308 308 307 307 308 308 308 307 305 304 305 306 305 304 301 298 298 298 299 299 299 299 299 298 297 296 295 294
308 307 307 307 306 305 304 304 304 304 304 304 304 305 305 306 306 306 306 307 307 306 306 306 304 305 305 304 301 298 297 298 298 298 299 300 299 297 295 293 293 293 292 292
304 304 304 303 303 303 304 304 304 304 304 304 304 304 304 304 304 305 306 306 305 306 305 304 304 304 302 299 297 297 297 297 299 300 300 298 296 295 293 293 293 293 293 292
303 303 303 303 304 304 305 304 304 304 304 304 304 304 303 303 304 304 305 305 304 305 303 303 303 300 298 297 297 297 298 298 299 299 297 296 295 293 293 294 293 292 292 292
303 303 303 303 303 303 303 303 303 303 303 303 303 303 303 303 303 303 303 304 303 303 303 302 299 297 297 296 297 297 297 298 298 298 297 296 294 293 292 292 291 292 291 291
302 302 302 302 302 302 302 302 302 302 303 303 303 303 303 303 303 303 301 303 303 303 301 298 297 296 295 295 295 296 296 297 297 297 296 294 293 292 291 291 291 291 291 290
301 301 301 301 301 302 301 302 303 303 302 303 303 303 303 302 302 302 302 303 302 300 297 297 296 295 294 294 294 294 295 296 295 295 294 293 292 292 292 291 291 290 290 291
301 300 299 300 300 300 300 301 302 302 302 302 302 302 301 301 301 302 302 302 299 297 296 296 295 294 293 293 293 294 294 294 294 294 293 292 292 294 293 291 290 290 290 290
300 299 298 299 300 300 301 300 301 303 302 302 301 301 301 301 302 302 299 297 297 296 295 294 292 292 292 292 293 293 293 293 293 293 293 293 294 294 293 291 290 291 290 291
Wind_Speed
10 7 9 12 12 14 17 18 12 22 19 20 19 19 25 20 18 18 20 22 21 20 17 13 13 12 13 14 13 12 13 12 12 15 18 21 25 28 29 30 33 34 35 36
9 9 10 17 17 17 19 21 22 24 26 22 23 16 21 20 18 17 18 19 19 17 16 15 14 13 12 10 9 8 8 9 10 11 14 17 20 23 26 28 31 32 35 37
3 2 3 10 17 18 12 14 17 17 17 13 14 17 16 17 16 16 17 18 17 15 15 13 13 11 9 6 4 5 6 7 9 11 13 15 17 20 23 26 28 31 34 37
3 1 6 1 2 2 9 13 16 18 18 20 17 17 17 15 14 14 14 17 17 14 12 13 13 10 8 6 6 6 6 6 8 10 11 13 17 19 21 23 26 29 33 35
4 9 11 13 6 7 9 11 14 20 18 19 9 7 16 8 9 13 15 16 16 15 13 14 13 11 11 10 9 9 8 8 8 9 11 13 15 16 19 22 25 27 29 32
6 5 7 4 5 6 6 10 19 13 13 8 6 5 8 5 13 17 18 17 16 15 15 15 15 15 15 14 13 13 12 11 12 13 13 16 19 22 23 25 27 28 30 31
12 9 8 8 12 9 6 7 12 14 11 11 7 12 16 16 19 21 23 22 21 19 18 19 20 21 20 19 19 16 17 17 16 17 18 20 22 25 27 29 30 31 32 32
8 7 12 20 12 9 8 5 11 14 13 13 14 16 19 22 25 26 29 27 26 26 25 24 25 27 27 26 22 22 22 22 21 20 22 24 27 30 31 30 30 30 32 34
12 8 1 34 16 33 10 10 13 14 14 14 16 19 20 25 25 28 29 29 28 27 28 29 31 31 33 33 28 27 26 26 25 23 24 26 29 30 30 28 30 30 30 32
11 14 17 20 25 21 18 25 29 19 19 20 22 24 27 27 27 28 29 27 25 26 30 32 34 36 37 34 33 32 30 28 27 27 27 28 29 26 27 29 30 30 31 30
17 18 19 18 19 23 28 30 30 30 30 29 26 33 33 30 28 27 26 27 28 28 31 32 31 34 36 37 36 37 33 30 28 27 28 29 28 27 28 27 29 29 30 30
12 11 19 22 18 18 24 29 30 27 28 30 34 37 35 34 31 28 28 29 27 29 33 36 33 36 37 39 36 35 33 29 27 27 26 27 29 31 28 27 26 27 27 27
28 29 32 27 27 29 31 32 34 38 41 40 38 38 35 37 32 33 32 30 30 34 36 35 36 38 38 36 34 32 30 27 25 25 25 26 27 29 31 28 27 27 26 24
26 22 29 32 30 31 33 36 35 38 41 36 33 32 35 37 39 32 31 32 34 35 35 35 35 35 31 31 29 27 25 25 25 24 23 25 26 27 27 27 29 27 26 25
43 40 40 43 42 41 40 41 40 38 36 36 36 37 36 36 34 34 34 32 33 34 34 33 33 30 29 28 27 26 23 24 24 22 23 24 24 25 25 25 26 27 27 27
41 36 35 34 35 35 34 34 34 33 33 32 32 31 31 32 32 32 32 32 33 35 33 32 29 29 28 26 24 22 20 21 22 23 23 23 23 24 25 26 27 27 26 25
29 32 30 32 31 31 29 27 27 28 28 28 29 30 31 31 32 34 32 34 32 30 30 29 27 26 24 22 19 18 19 20 23 22 22 22 23 24 24 24 25 26 27 25
34 36 35 33 30 28 26 25 26 26 28 29 29 29 30 30 32 32 30 30 29 28 27 25 22 20 19 18 18 18 18 19 21 21 22 22 22 22 22 22 22 23 25 24
24 26 25 23 20 20 21 21 23 23 25 28 28 29 29 30 30 30 27 28 31 30 27 22 19 17 18 17 17 16 18 19 19 18 19 20 21 21 21 21 21 21 23 24
16 15 16 16 17 16 16 18 19 20 22 25 27 28 30 31 30 29 29 29 27 23 21 18 19 19 18 15 15 15 16 17 17 17 17 18 17 17 17 18 19 20 21 23
12 12 11 10 12 14 16 18 21 24 25 25 27 30 31 31 29 26 24 24 19 18 18 18 18 17 15 14 13 14 15 15 15 15 15 14 14 15 17 18 18 19 22 23
5 7 10 13 16 18 19 22 24 28 29 30 31 31 29 30 26 25 22 20 21 20 18 17 17 15 12 11 12 14 14 13 14 13 13 14 15 17 17 19 20 21 22 23
6 9 12 16 20 24 28 29 31 32 32 32 32 29 28 26 19 18 20 20 21 16 16 16 14 12 10 10 13 13 13 12 13 13 13 13 14 15 18 19 19 21 23 22
7 10 14 18 21 24 26 25 27 29 30 31 30 26 23 20 16 17 18 16 14 14 14 12 11 10 9 11 11 10 10 11 12 11 11 12 13 15 17 18 19 21 21 21
9 13 15 15 17 19 24 26 27 27 24 24 22 20 17 16 13 16 17 14 14 15 14 12 11 11 12 10 9 10 10 10 10 10 11 11 13 15 17 18 19 19 19 21
16 18 22 23 23 23 23 23 23 25 22 21 18 15 14 16 15 12 15 14 14 15 13 12 12 14 12 10 9 10 9 9 10 11 9 10 13 15 16 17 17 18 19 20
21 24 25 23 23 21 22 26 26 25 20 19 16 14 15 14 15 14 14 15 16 14 14 14 14 13 11 11 11 9 8 11 11 8 8 10 13 14 16 16 16 17 18 19
Wind_Direction
259 269 253 263 255 209 221 235 251 273 281 286 303 317 313 315 313 303 293 289 286 284 277 266 264 272 286 296 303 306 302 296 285 271 259 254 251 252 252 251 251 250 249 253
260 236 257 276 265 252 240 235 254 264 275 285 290 295 310 311 312 307 305 303 297 282 269 267 262 269 280 292 305 316 317 306 294 285 273 267 261 259 257 256 256 252 251 251
266 125 258 266 264 238 226 237 234 243 254 276 309 313 315 312 308 303 306 310 307 280 265 259 256 261 264 269 293 320 323 316 301 289 280 272 271 269 268 265 261 259 257 256
268 168 245 265 221 246 241 246 226 252 264 278 284 291 297 292 280 299 309 319 317 301 275 256 252 242 237 253 280 302 314 317 312 305 300 290 284 281 277 273 269 266 264 262
224 221 286 305 246 180 190 270 218 236 254 267 271 303 300 250 272 303 310 316 317 303 281 264 246 234 242 258 271 281 287 294 299 303 306 306 303 299 293 285 279 275 273 268
189 232 240 87 129 157 154 269 250 229 220 217 174 273 298 272 294 296 298 305 306 301 284 260 247 248 250 258 266 272 279 285 287 291 294 301 304 302 297 291 285 276 272 271
227 244 254 239 161 160 211 267 170 186 200 186 200 259 291 283 296 298 293 293 291 284 278 268 256 255 256 257 264 269 274 279 281 285 294 300 302 300 297 292 287 282 279 275
208 224 254 195 144 207 220 205 204 211 225 217 249 268 275 278 283 291 291 291 288 280 278 271 261 262 261 260 265 266 271 272 273 279 291 299 301 302 297 289 283 283 283 282
202 209 1 171 206 214 232 247 243 238 239 242 258 264 267 275 280 286 283 283 284 281 282 276 272 269 266 269 264 265 268 274 276 281 291 298 301 300 297 293 288 287 281 280
248 223 238 215 233 244 250 250 260 253 264 269 270 272 276 277 278 285 284 288 286 286 287 285 281 276 275 269 262 264 267 269 271 279 288 294 297 294 291 291 288 289 288 286
248 256 275 263 246 255 261 262 268 269 271 275 277 280 279 276 281 279 278 278 280 276 283 287 290 282 279 274 263 263 264 265 268 279 287 295 296 296 293 293 291 289 285 285
240 233 240 263 268 261 262 263 274 274 280 281 281 281 280 279 281 279 279 277 276 280 290 293 289 286 281 273 261 256 258 261 269 278 289 296 298 298 295 297 293 290 290 282
261 265 273 282 277 278 276 275 278 283 285 286 283 281 279 282 281 286 279 273 273 279 294 286 284 283 283 269 257 253 255 260 269 284 294 298 298 299 300 300 298 296 296 291
266 275 267 264 265 273 274 274 276 280 277 274 276 278 279 283 288 280 277 278 283 286 282 283 280 279 270 260 252 250 257 267 276 284 291 296 299 299 301 304 305 305 303 303
266 264 270 279 281 276 275 277 275 270 273 277 278 280 282 282 281 282 281 282 284 285 283 280 277 268 261 256 251 251 257 271 283 292 295 296 295 298 300 301 302 305 307 307
267 271 271 271 272 274 275 275 275 276 277 279 280 280 280 282 283 282 280 284 292 287 283 279 275 265 258 250 247 254 266 279 288 290 290 291 294 296 297 299 301 304 305 306
263 265 268 270 271 275 274 274 273 276 278 276 275 276 275 275 274 274 273 284 284 284 279 277 271 262 253 249 254 265 273 283 286 285 290 294 297 297 295 297 299 302 303 304
261 265 268 270 276 279 279 278 278 277 276 276 277 276 275 274 273 276 277 283 280 285 280 272 262 251 244 248 257 267 275 278 282 292 294 296 295 296 298 299 301 302 301 299
257 264 269 272 274 274 275 278 280 282 284 283 282 280 278 276 276 278 277 274 279 274 275 265 254 245 246 252 262 272 280 285 287 290 294 297 300 302 303 306 310 311 307 304
258 267 272 276 281 286 287 288 289 290 295 293 289 283 282 284 288 286 284 275 273 270 259 255 245 244 251 258 270 278 282 281 288 291 295 296 299 307 316 322 325 327 325 321
277 279 281 287 297 304 307 314 314 312 312 307 300 296 295 292 283 277 271 265 260 256 254 246 240 245 251 266 277 281 280 284 286 289 292 297 304 310 315 314 310 315 311 314
293 302 305 307 311 312 314 311 308 304 304 303 301 296 291 285 273 269 260 254 254 256 238 235 238 245 259 273 276 274 276 283 287 289 291 293 298 308 311 311 313 314 312 309
320 317 314 312 310 305 301 300 301 303 300 302 302 297 287 278 261 250 246 242 240 230 228 234 246 252 262 268 268 268 273 281 286 287 289 295 304 303 306 315 314 315 318 318
310 314 312 310 313 311 308 309 305 301 302 302 299 294 281 266 253 238 235 240 231 225 230 239 244 249 254 259 262 270 276 276 278 287 297 304 303 308 317 320 322 320 318 319
314 311 307 304 303 306 315 316 310 308 305 301 297 293 275 249 237 247 230 223 219 225 229 230 235 243 249 256 265 271 270 275 287 298 297 299 308 319 330 331 327 325 324 320
305 305 305 306 305 307 313 314 309 310 306 304 299 286 258 241 232 235 229 228 226 225 227 229 235 245 248 255 260 262 270 286 289 283 294 312 323 334 333 332 332 330 331 329
294 299 305 304 302 302 302 309 308 306 303 297 284 278 257 241 233 237 240 238 232 228 230 235 240 243 245 246 249 258 278 279 273 293 305 321 337 342 340 338 338 336 334 336